FW4098 Weather Reports


time (UTC)temp
C
wind
direction
speed
KPH
gust
KPH
rain 1hr
cm
rain 24hr
cm
rain mn
cm
humidity
%
barometer
mb
20260510033029 24 360 11.3 22.5 0.00 1.19 0.46 70 1006.4
20260510031539 24 360 12.9 24.1 0.00 1.19 0.46 69 1006.1
20260510030028 25 360 9.7 22.5 0.00 1.19 0.46 68 1006.3
20260510024536 25 360 9.7 20.9 0.00 1.19 0.46 68 1006.1
20260510023026 25 360 9.7 25.7 0.00 1.19 0.46 67 1005.9
20260510021526 26 360 11.3 30.6 0.00 1.19 0.46 66 1005.6
20260510020025 26 360 12.9 25.7 0.00 1.19 0.46 65 1005.6
20260510014524 26 360 9.7 20.9 0.00 1.19 0.46 63 1005.6
20260510013024 27 360 9.7 22.5 0.00 1.19 0.46 62 1005.5
20260510011533 27 360 11.3 24.1 0.00 1.19 0.46 62 1005.2
20260510010022 27 360 14.5 32.2 0.00 1.19 0.46 61 1004.9
20260510004523 28 360 22.5 33.8 0.00 1.19 0.46 60 1004.5
20260510003046 28 360 19.3 32.2 0.00 1.19 0.46 60 1005.2
20260510001518 28 360 14.5 20.9 0.00 1.19 0.46 58 1005.4
20260510000018 29 360 8.0 20.9 0.00 1.19 0.46 55 1005.6
20260509234526 30 360 14.5 22.5 0.00 1.19 0.46 51 1005.7
20260509233021 30 360 12.9 22.5 0.00 1.19 0.46 52 1005.6
20260509231525 30 360 12.9 25.7 0.00 1.19 0.46 52 1005.7
20260509230020 31 360 11.3 25.7 0.00 1.19 0.46 52 1005.8
20260509224515 30 360 16.1 24.1 0.00 1.19 0.46 53 1006.0
20260509223012 30 360 11.3 20.9 0.00 1.19 0.46 53 1006.2
20260509221509 30 360 12.9 22.5 0.03 1.19 0.46 53 1006.4
20260509220009 30 360 12.9 24.1 0.03 1.19 0.46 52 1006.7
20260509214508 30 360 11.3 22.5 0.03 1.19 0.46 53 1006.9
20260509213003 30 360 14.5 19.3 0.03 1.19 0.46 50 1007.2
20260509211605 30 360 8.0 19.3 0.00 1.17 0.43 51 1007.4
20260509204555 30 360 9.7 17.7 0.00 1.17 0.43 51 1007.9
20260509203055 30 360 6.4 22.5 0.00 1.17 0.43 49 1008.2
20260509201555 30 360 9.7 20.9 0.00 1.17 0.43 52 1008.4
20260509200155 29 360 9.7 17.7 0.00 1.17 0.43 53 1008.5
20260509194551 30 360 8.0 14.5 0.00 1.17 0.43 54 1008.9
20260509193050 29 360 4.8 14.5 0.00 1.17 0.43 53 1009.0
20260509191550 29 360 4.8 16.1 0.00 1.17 0.43 52 1009.2
20260509190048 28 360 6.4 12.9 0.03 1.17 0.43 50 1009.2
20260509184546 28 360 4.8 14.5 0.03 1.17 0.43 51 1009.2
20260509183114 28 360 11.3 17.7 0.03 1.17 0.43 52 1009.4
20260509181600 28 360 8.0 17.7 0.03 1.17 0.43 54 1009.5
20260509180040 27 360 12.9 19.3 0.00 1.14 0.41 56 1009.9
20260509174537 27 360 9.7 17.7 0.00 1.14 0.41 57 1010.2
20260509173032 27 360 6.4 14.5 0.00 1.14 0.41 56 1010.4
20260509171529 27 360 8.0 14.5 0.00 1.14 0.41 60 1010.6
20260509170025 26 360 4.8 9.7 0.00 1.14 0.41 62 1010.7
20260509164521 26 360 4.8 12.9 0.00 1.14 0.41 63 1010.9
20260509163027 25 360 0.0 9.7 0.00 1.14 0.41 65 1011.1
20260509161514 25 360 1.6 9.7 0.03 1.14 0.41 69 1011.1
20260509160010 24 360 0.0 6.4 0.03 1.14 0.41 71 1011.1
20260509154504 23 360 1.6 9.7 0.03 1.14 0.41 72 1011.2
20260509153100 23 360 6.4 9.7 0.03 1.14 0.41 72 1011.3
20260509151556 22 360 1.6 8.0 0.00 1.12 0.38 75 1011.3
20260509150051 22 360 0.0 6.4 0.03 1.12 0.38 77 1011.3
20260509144547 21 360 6.4 12.9 0.03 1.12 0.38 76 1011.4
20260509143043 21 360 0.0 3.2 0.03 1.12 0.38 79 1011.4
20260509141538 20 360 3.2 4.8 0.03 1.12 0.38 83 1011.3
20260509140034 18 360 0.0 8.0 0.00 1.09 0.36 87 1011.6
20260509134530 18 360 1.6 6.4 0.00 1.09 0.36 90 1011.7
20260509133028 17 360 4.8 8.0 0.00 1.09 0.36 92 1011.6
20260509131523 16 360 3.2 6.4 0.00 1.09 0.36 93 1011.6
20260509130022 16 360 0.0 3.2 0.00 1.09 0.36 93 1011.5
20260509124520 15 360 4.8 9.7 0.03 1.09 0.36 93 1011.4
20260509123018 15 360 3.2 6.4 0.03 1.09 0.36 93 1011.4
20260509121523 15 360 0.0 4.8 0.03 1.09 0.36 93 1011.1
20260509120016 14 360 0.0 6.4 0.03 1.09 0.36 92 1011.0
20260509114510 15 360 0.0 6.4 0.00 1.07 0.33 92 1010.7
20260509113008 15 360 3.2 9.7 0.00 1.07 0.33 92 1010.7
20260509111506 15 360 4.8 9.7 0.03 1.07 0.33 92 1010.6
20260509110006 15 360 0.0 4.8 0.03 1.07 0.33 91 1009.8
20260509104504 15 360 0.0 6.4 0.03 1.07 0.33 91 1009.7
20260509103002 15 360 3.2 12.9 0.03 1.07 0.33 91 1009.5
20260509101502 16 360 1.6 8.0 0.03 1.04 0.30 91 1009.4
20260509100001 16 360 1.6 6.4 0.03 1.04 0.30 91 1009.1
20260509094600 16 360 4.8 9.7 0.03 1.04 0.30 90 1008.8
20260509093100 16 360 6.4 12.9 0.03 1.04 0.30 90 1008.5
20260509091558 16 360 4.8 12.9 0.03 1.02 0.28 90 1008.2
20260509090056 16 360 3.2 8.0 0.03 1.02 0.28 89 1008.1
20260509084557 16 360 3.2 9.7 0.05 1.02 0.28 89 1008.5
20260509083052 16 360 4.8 8.0 0.05 1.02 0.28 89 1008.6
20260509081552 16 360 1.6 9.7 0.05 0.99 0.25 89 1008.6
20260509080055 16 360 3.2 8.0 0.05 0.99 0.25 88 1008.9
20260509074549 16 360 4.8 12.9 0.05 0.97 0.23 89 1008.9
20260509073046 16 360 4.8 12.9 0.08 0.97 0.23 89 1009.2
20260509071545 16 360 4.8 12.9 0.08 0.94 0.20 89 1009.4
20260509070045 16 360 4.8 12.9 0.10 0.94 0.20 89 1009.6
20260509064546 16 360 3.2 9.7 0.10 0.91 0.18 89 1009.7
20260509063043 16 360 4.8 14.5 0.10 0.89 0.15 89 1009.7
20260509061542 16 360 6.4 12.9 0.10 0.86 0.13 89 1010.0
20260509060040 16 360 3.2 19.3 0.10 0.84 0.10 89 1009.7
20260509054540 16 360 12.9 19.3 0.10 0.81 0.08 89 1010.2
20260509053040 16 360 8.0 19.3 0.13 0.79 0.05 89 1009.7
20260509051538 16 360 4.8 9.7 0.15 0.76 0.03 89 1009.6
20260509050030 16 360 3.2 9.7 0.18 0.71 0.00 89 1010.5
20260509044529 16 360 9.7 24.1 0.23 0.71 0.71 90 1010.9
20260509043029 16 360 14.5 27.4 0.48 0.66 0.66 90 1010.5
20260509041528 17 360 19.3 25.7 0.61 0.61 0.61 89 1010.4
20260509040027 17 360 6.4 22.5 0.56 0.56 0.56 88 1011.0
20260509034527 17 360 3.2 17.7 0.46 0.46 0.46 85 1011.3